Time,TemperatureF,DewpointF,PressureIn,WindDirection,WindDirectionDegrees,WindSpeedMPH,WindSpeedGustMPH,Humidity,HourlyPrecipIn,Conditions,Clouds,dailyrainin,SoftwareType,DateUTC
2013-04-03 00:00:00,45.6,20.1,30.17,NE,44,1.0,1.0,36,0.00,,,0.00,Wunderground v.1.15,2013-04-03 04:00:00,
2013-04-03 00:05:00,45.5,21.3,30.18,East,80,0.0,1.0,38,0.00,,,0.00,Wunderground v.1.15,2013-04-03 04:05:00,
2013-04-03 00:15:00,45.4,21.2,30.18,NE,38,0.0,0.0,38,0.00,,,0.00,Wunderground v.1.15,2013-04-03 04:15:00,
2013-04-03 00:20:00,45.3,20.5,30.18,SSE,150,0.0,4.0,37,0.00,,,0.00,Wunderground v.1.15,2013-04-03 04:20:00,
2013-04-03 00:25:00,45.2,20.4,30.18,NNE,31,0.0,4.0,37,0.00,,,0.00,Wunderground v.1.15,2013-04-03 04:25:00,
2013-04-03 00:30:00,45.2,21.1,30.18,ESE,115,1.0,1.0,38,0.00,,,0.00,Wunderground v.1.15,2013-04-03 04:30:00,
2013-04-03 00:35:00,45.1,21.6,30.17,North,355,1.0,1.0,39,0.00,,,0.00,Wunderground v.1.15,2013-04-03 04:35:00,
2013-04-03 00:40:00,45.0,20.9,30.18,NE,37,0.0,0.0,38,0.00,,,0.00,Wunderground v.1.15,2013-04-03 04:40:00,
2013-04-03 00:45:00,44.9,20.2,30.18,NNW,339,0.0,5.0,37,0.00,,,0.00,Wunderground v.1.15,2013-04-03 04:45:00,
2013-04-03 00:50:00,44.9,20.8,30.18,NNE,21,0.0,0.0,38,0.00,,,0.00,Wunderground v.1.15,2013-04-03 04:50:00,
2013-04-03 00:55:00,44.9,20.2,30.19,NNE,21,0.0,0.0,37,0.00,,,0.00,Wunderground v.1.15,2013-04-03 04:55:00,
2013-04-03 01:00:00,44.9,20.8,30.19,NNE,21,0.0,0.0,38,0.00,,,0.00,Wunderground v.1.15,2013-04-03 05:00:00,
2013-04-03 01:05:00,44.8,20.7,30.19,East,100,0.0,4.0,38,0.00,,,0.00,Wunderground v.1.15,2013-04-03 05:05:00,
2013-04-03 01:10:00,44.8,20.7,30.19,East,99,1.0,1.0,38,0.00,,,0.00,Wunderground v.1.15,2013-04-03 05:10:00,
2013-04-03 01:15:00,44.8,21.3,30.19,East,99,0.0,1.0,39,0.00,,,0.00,Wunderground v.1.15,2013-04-03 05:15:00,
2013-04-03 01:19:00,44.8,21.3,30.19,ENE,61,0.0,3.0,39,0.00,,,0.00,Wunderground v.1.15,2013-04-03 05:19:00,
2013-04-03 01:24:00,44.7,20.6,30.19,ENE,74,1.0,3.0,38,0.00,,,0.00,Wunderground v.1.15,2013-04-03 05:24:00,
2013-04-03 01:29:00,44.7,20.6,30.20,NW,314,1.0,1.0,38,0.00,,,0.00,Wunderground v.1.15,2013-04-03 05:29:00,
2013-04-03 01:35:00,44.7,20.6,30.20,West,279,1.0,1.0,38,0.00,,,0.00,Wunderground v.1.15,2013-04-03 05:35:00,
2013-04-03 01:40:00,44.7,21.2,30.20,NE,55,1.0,1.0,39,0.00,,,0.00,Wunderground v.1.15,2013-04-03 05:40:00,
2013-04-03 01:45:00,44.6,20.5,30.20,NNE,27,0.0,1.0,38,0.00,,,0.00,Wunderground v.1.15,2013-04-03 05:45:00,
2013-04-03 01:50:00,44.6,21.1,30.20,NE,36,0.0,0.0,39,0.00,,,0.00,Wunderground v.1.15,2013-04-03 05:50:00,
2013-04-03 01:55:00,44.6,21.1,30.20,NE,49,0.0,0.0,39,0.00,,,0.00,Wunderground v.1.15,2013-04-03 05:55:00,
2013-04-03 02:00:00,44.5,21.0,30.20,North,360,0.0,0.0,39,0.00,,,0.00,Wunderground v.1.15,2013-04-03 06:00:00,
2013-04-03 02:05:00,44.5,21.0,30.19,ENE,57,0.0,0.0,39,0.00,,,0.00,Wunderground v.1.15,2013-04-03 06:05:00,
2013-04-03 02:09:00,44.4,21.0,30.19,ENE,57,0.0,0.0,39,0.00,,,0.00,Wunderground v.1.15,2013-04-03 06:09:00,
2013-04-03 02:15:00,44.4,21.6,30.19,ENE,57,0.0,0.0,40,0.00,,,0.00,Wunderground v.1.15,2013-04-03 06:15:00,
2013-04-03 02:20:00,44.3,20.9,30.19,North,5,0.0,0.0,39,0.00,,,0.00,Wunderground v.1.15,2013-04-03 06:20:00,
2013-04-03 02:25:00,44.2,20.2,30.19,NNW,348,1.0,1.0,38,0.00,,,0.00,Wunderground v.1.15,2013-04-03 06:25:00,
2013-04-03 02:30:00,44.2,20.8,30.19,ENE,75,1.0,1.0,39,0.00,,,0.00,Wunderground v.1.15,2013-04-03 06:30:00,
2013-04-03 02:35:00,44.2,20.8,30.19,NNE,28,0.0,1.0,39,0.00,,,0.00,Wunderground v.1.15,2013-04-03 06:35:00,
2013-04-03 02:40:00,44.1,20.1,30.19,NW,319,0.0,2.0,38,0.00,,,0.00,Wunderground v.1.15,2013-04-03 06:40:00,
2013-04-03 02:45:00,44.1,20.1,30.18,East,93,1.0,2.0,38,0.00,,,0.00,Wunderground v.1.15,2013-04-03 06:45:00,
2013-04-03 02:50:00,44.0,20.0,30.18,WNW,289,1.0,1.0,38,0.00,,,0.00,Wunderground v.1.15,2013-04-03 06:50:00,
2013-04-03 03:00:00,43.9,20.5,30.18,East,86,0.0,0.0,39,0.00,,,0.00,Wunderground v.1.15,2013-04-03 07:00:00,
2013-04-03 03:05:00,43.8,19.8,30.19,East,86,0.0,0.0,38,0.00,,,0.00,Wunderground v.1.15,2013-04-03 07:05:00,
2013-04-03 03:10:00,43.8,21.0,30.18,East,86,0.0,0.0,40,0.00,,,0.00,Wunderground v.1.15,2013-04-03 07:10:00,
2013-04-03 03:15:00,43.7,20.3,30.18,WNW,292,0.0,0.0,39,0.00,,,0.00,Wunderground v.1.15,2013-04-03 07:15:00,
2013-04-03 03:20:00,43.7,20.3,30.19,NE,49,0.0,0.0,39,0.00,,,0.00,Wunderground v.1.15,2013-04-03 07:20:00,
2013-04-03 03:25:00,43.6,19.6,30.19,ESE,116,0.0,4.0,38,0.00,,,0.00,Wunderground v.1.15,2013-04-03 07:25:00,
2013-04-03 03:30:00,43.5,20.2,30.19,WNW,301,0.0,0.0,39,0.00,,,0.00,Wunderground v.1.15,2013-04-03 07:30:00,
2013-04-03 03:35:00,43.4,19.5,30.19,NE,51,1.0,1.0,38,0.00,,,0.00,Wunderground v.1.15,2013-04-03 07:35:00,
2013-04-03 03:40:00,43.4,19.5,30.19,East,84,0.0,0.0,38,0.00,,,0.00,Wunderground v.1.15,2013-04-03 07:40:00,
2013-04-03 03:45:00,43.3,19.4,30.19,NE,34,1.0,2.0,38,0.00,,,0.00,Wunderground v.1.15,2013-04-03 07:45:00,
2013-04-03 03:49:00,43.2,19.3,30.18,NE,46,1.0,1.0,38,0.00,,,0.00,Wunderground v.1.15,2013-04-03 07:49:00,
2013-04-03 03:54:00,43.1,19.2,30.18,East,94,0.0,1.0,38,0.00,,,0.00,Wunderground v.1.15,2013-04-03 07:54:00,
2013-04-03 03:59:00,43.0,19.1,30.18,ENE,77,0.0,0.0,38,0.00,,,0.00,Wunderground v.1.15,2013-04-03 07:59:00,
2013-04-03 04:05:00,42.9,19.0,30.19,NE,41,1.0,1.0,38,0.00,,,0.00,Wunderground v.1.15,2013-04-03 08:05:00,
2013-04-03 04:10:00,42.8,18.9,30.19,NE,45,1.0,1.0,38,0.00,,,0.00,Wunderground v.1.15,2013-04-03 08:10:00,
2013-04-03 04:15:00,42.7,18.8,30.19,ESE,112,1.0,1.0,38,0.00,,,0.00,Wunderground v.1.15,2013-04-03 08:15:00,
2013-04-03 04:20:00,42.6,19.3,30.19,SE,125,1.0,1.0,39,0.00,,,0.00,Wunderground v.1.15,2013-04-03 08:20:00,
2013-04-03 04:25:00,42.5,19.3,30.19,ESE,121,0.0,1.0,39,0.00,,,0.00,Wunderground v.1.15,2013-04-03 08:25:00,
2013-04-03 04:30:00,42.4,19.8,30.19,SE,126,0.0,0.0,40,0.00,,,0.00,Wunderground v.1.15,2013-04-03 08:30:00,
2013-04-03 04:35:00,42.4,19.2,30.19,NNW,327,0.0,0.0,39,0.00,,,0.00,Wunderground v.1.15,2013-04-03 08:35:00,
2013-04-03 04:40:00,42.3,19.1,30.19,ENE,66,0.0,1.0,39,0.00,,,0.00,Wunderground v.1.15,2013-04-03 08:40:00,
2013-04-03 04:45:00,42.3,19.7,30.19,WNW,292,0.0,1.0,40,0.00,,,0.00,Wunderground v.1.15,2013-04-03 08:45:00,
2013-04-03 04:50:00,42.2,19.6,30.19,NE,40,0.0,0.0,40,0.00,,,0.00,Wunderground v.1.15,2013-04-03 08:50:00,
2013-04-03 04:55:00,42.1,18.9,30.19,SSW,201,0.0,0.0,39,0.00,,,0.00,Wunderground v.1.15,2013-04-03 08:55:00,
2013-04-03 05:00:00,42.0,19.4,30.19,NE,37,1.0,1.0,40,0.00,,,0.00,Wunderground v.1.15,2013-04-03 09:00:00,
2013-04-03 05:10:00,41.9,19.3,30.18,West,281,0.0,0.0,40,0.00,,,0.00,Wunderground v.1.15,2013-04-03 09:10:00,
2013-04-03 05:15:00,41.8,19.2,30.18,East,98,0.0,2.0,40,0.00,,,0.00,Wunderground v.1.15,2013-04-03 09:15:00,
2013-04-03 05:20:00,41.6,19.6,30.18,ESE,107,1.0,1.0,41,0.00,,,0.00,Wunderground v.1.15,2013-04-03 09:20:00,
2013-04-03 05:25:00,41.5,18.4,30.18,NE,56,1.0,1.0,39,0.00,,,0.00,Wunderground v.1.15,2013-04-03 09:25:00,
2013-04-03 05:35:00,41.4,18.9,30.19,ENE,61,1.0,1.0,40,0.00,,,0.00,Wunderground v.1.15,2013-04-03 09:35:00,
2013-04-03 05:40:00,41.3,18.2,30.19,East,80,0.0,0.0,39,0.00,,,0.00,Wunderground v.1.15,2013-04-03 09:40:00,
2013-04-03 05:45:00,41.2,19.2,30.20,East,80,0.0,0.0,41,0.00,,,0.00,Wunderground v.1.15,2013-04-03 09:45:00,
2013-04-03 05:50:00,41.1,18.6,30.20,NW,304,0.0,0.0,40,0.00,,,0.00,Wunderground v.1.15,2013-04-03 09:50:00,
2013-04-03 05:55:00,41.1,19.7,30.20,East,87,0.0,0.0,42,0.00,,,0.00,Wunderground v.1.15,2013-04-03 09:55:00,
2013-04-03 06:00:00,41.0,18.5,30.21,NNE,30,0.0,0.0,40,0.00,,,0.00,Wunderground v.1.15,2013-04-03 10:00:00,
2013-04-03 06:05:00,40.9,17.8,30.20,ENE,57,0.0,0.0,39,0.00,,,0.00,Wunderground v.1.15,2013-04-03 10:05:00,
2013-04-03 06:10:00,40.8,18.3,30.21,East,82,0.0,0.0,40,0.00,,,0.00,Wunderground v.1.15,2013-04-03 10:10:00,
2013-04-03 06:14:00,40.7,18.2,30.21,NW,304,0.0,0.0,40,0.00,,,0.00,Wunderground v.1.15,2013-04-03 10:14:00,
2013-04-03 06:20:00,40.7,18.2,30.21,NNW,337,0.0,0.0,40,0.00,,,0.00,Wunderground v.1.15,2013-04-03 10:20:00,
2013-04-03 06:25:00,40.6,18.7,30.21,ENE,74,0.0,0.0,41,0.00,,,0.00,Wunderground v.1.15,2013-04-03 10:25:00,
2013-04-03 06:30:00,40.6,19.3,30.21,ENE,74,0.0,1.0,42,0.00,,,0.00,Wunderground v.1.15,2013-04-03 10:30:00,
2013-04-03 06:35:00,40.5,19.2,30.22,ENE,74,0.0,1.0,42,0.00,,,0.00,Wunderground v.1.15,2013-04-03 10:35:00,
2013-04-03 06:40:00,40.5,18.6,30.22,NE,52,0.0,0.0,41,0.00,,,0.00,Wunderground v.1.15,2013-04-03 10:40:00,
2013-04-03 06:45:00,40.4,18.5,30.22,ENE,63,0.0,0.0,41,0.00,,,0.00,Wunderground v.1.15,2013-04-03 10:45:00,
2013-04-03 06:50:00,40.3,17.9,30.22,NNE,28,0.0,0.0,40,0.00,,,0.00,Wunderground v.1.15,2013-04-03 10:50:00,
2013-04-03 06:55:00,40.2,18.3,30.22,NNE,32,0.0,0.0,41,0.00,,,0.00,Wunderground v.1.15,2013-04-03 10:55:00,
2013-04-03 07:00:00,40.1,18.3,30.22,NNE,32,0.0,0.0,41,0.00,,,0.00,Wunderground v.1.15,2013-04-03 11:00:00,
2013-04-03 07:05:00,40.0,18.2,30.22,East,84,0.0,0.0,41,0.00,,,0.00,Wunderground v.1.15,2013-04-03 11:05:00,
2013-04-03 07:10:00,39.9,18.6,30.23,South,169,0.0,0.0,42,0.00,,,0.00,Wunderground v.1.15,2013-04-03 11:10:00,
2013-04-03 07:15:00,39.8,18.5,30.23,South,169,0.0,0.0,42,0.00,,,0.00,Wunderground v.1.15,2013-04-03 11:15:00,
2013-04-03 07:20:00,39.7,20.1,30.24,NE,50,0.0,2.0,45,0.00,,,0.00,Wunderground v.1.15,2013-04-03 11:20:00,
2013-04-03 07:25:00,39.5,19.4,30.24,NE,50,0.0,2.0,44,0.00,,,0.00,Wunderground v.1.15,2013-04-03 11:25:00,
2013-04-03 07:30:00,39.3,20.7,30.25,NE,50,0.0,0.0,47,0.00,,,0.00,Wunderground v.1.15,2013-04-03 11:30:00,
2013-04-03 07:34:00,39.1,18.5,30.25,NE,50,0.0,0.0,43,0.00,,,0.00,Wunderground v.1.15,2013-04-03 11:34:00,
2013-04-03 07:39:00,39.1,19.5,30.25,ENE,66,0.0,0.0,45,0.00,,,0.00,Wunderground v.1.15,2013-04-03 11:39:00,
2013-04-03 07:44:00,39.0,20.5,30.26,ENE,67,0.0,0.0,47,0.00,,,0.00,Wunderground v.1.15,2013-04-03 11:44:00,
2013-04-03 07:50:00,39.1,18.5,30.26,ENE,69,0.0,0.0,43,0.00,,,0.00,Wunderground v.1.15,2013-04-03 11:50:00,
2013-04-03 07:55:00,39.2,19.1,30.26,WNW,294,0.0,1.0,44,0.00,,,0.00,Wunderground v.1.15,2013-04-03 11:55:00,
2013-04-03 08:00:00,39.3,17.5,30.26,WNW,295,0.0,0.0,41,0.00,,,0.00,Wunderground v.1.15,2013-04-03 12:00:00,
2013-04-03 08:05:00,39.6,17.8,30.27,North,350,0.0,0.0,41,0.00,,,0.00,Wunderground v.1.15,2013-04-03 12:05:00,
2013-04-03 08:10:00,39.7,17.3,30.27,WSW,256,1.0,1.0,40,0.00,,,0.00,Wunderground v.1.15,2013-04-03 12:10:00,
2013-04-03 08:15:00,39.9,18.1,30.27,WNW,302,1.0,1.0,41,0.00,,,0.00,Wunderground v.1.15,2013-04-03 12:15:00,
2013-04-03 08:20:00,40.1,17.7,30.27,NNE,22,0.0,0.0,40,0.00,,,0.00,Wunderground v.1.15,2013-04-03 12:20:00,
2013-04-03 08:25:00,40.4,18.5,30.28,NNW,333,0.0,2.0,41,0.00,,,0.00,Wunderground v.1.15,2013-04-03 12:25:00,
2013-04-03 08:30:00,40.5,17.5,30.27,NNW,327,1.0,4.0,39,0.00,,,0.00,Wunderground v.1.15,2013-04-03 12:30:00,
2013-04-03 08:35:00,40.5,17.5,30.27,NNW,327,1.0,4.0,39,0.00,,,0.00,Wunderground v.1.15,2013-04-03 12:35:00,
2013-04-03 08:40:00,40.6,18.7,30.28,NNW,337,0.0,0.0,41,0.00,,,0.00,Wunderground v.1.15,2013-04-03 12:40:00,
2013-04-03 08:45:00,40.7,18.8,30.28,NNW,337,0.0,0.0,41,0.00,,,0.00,Wunderground v.1.15,2013-04-03 12:45:00,
2013-04-03 08:50:00,40.9,18.4,30.28,NNW,348,0.0,0.0,40,0.00,,,0.00,Wunderground v.1.15,2013-04-03 12:50:00,
2013-04-03 08:55:00,41.2,18.7,30.28,ENE,60,0.0,0.0,40,0.00,,,0.00,Wunderground v.1.15,2013-04-03 12:55:00,
2013-04-03 09:00:00,41.8,18.6,30.28,North,355,0.0,0.0,39,0.00,,,0.00,Wunderground v.1.15,2013-04-03 13:00:00,
2013-04-03 09:09:00,42.5,19.3,30.28,West,281,0.0,0.0,39,0.00,,,0.00,Wunderground v.1.15,2013-04-03 13:09:00,
2013-04-03 09:15:00,42.8,18.3,30.28,East,84,1.0,1.0,37,0.00,,,0.00,Wunderground v.1.15,2013-04-03 13:15:00,
2013-04-03 09:20:00,43.1,19.2,30.27,NE,55,0.0,0.0,38,0.00,,,0.00,Wunderground v.1.15,2013-04-03 13:20:00,
2013-04-03 09:25:00,43.5,18.9,30.27,NNE,30,0.0,1.0,37,0.00,,,0.00,Wunderground v.1.15,2013-04-03 13:25:00,
2013-04-03 09:30:00,43.8,18.5,30.26,NW,319,1.0,1.0,36,0.00,,,0.00,Wunderground v.1.15,2013-04-03 13:30:00,
2013-04-03 09:35:00,43.8,18.5,30.26,WNW,293,1.0,2.0,36,0.00,,,0.00,Wunderground v.1.15,2013-04-03 13:35:00,
2013-04-03 09:40:00,43.8,17.9,30.26,ESE,117,1.0,5.0,35,0.00,,,0.00,Wunderground v.1.15,2013-04-03 13:40:00,
2013-04-03 09:45:00,44.0,18.1,30.26,NE,42,1.0,5.0,35,0.00,,,0.00,Wunderground v.1.15,2013-04-03 13:45:00,
2013-04-03 09:50:00,44.2,18.9,30.26,NNE,17,1.0,1.0,36,0.00,,,0.00,Wunderground v.1.15,2013-04-03 13:50:00,
2013-04-03 09:55:00,44.3,19.0,30.26,East,94,1.0,1.0,36,0.00,,,0.00,Wunderground v.1.15,2013-04-03 13:55:00,
2013-04-03 10:00:00,44.4,19.1,30.27,NNE,15,1.0,2.0,36,0.00,,,0.00,Wunderground v.1.15,2013-04-03 14:00:00,
2013-04-03 10:05:00,44.4,19.7,30.27,NNW,342,2.0,2.0,37,0.00,,,0.00,Wunderground v.1.15,2013-04-03 14:05:00,
2013-04-03 10:10:00,44.6,19.9,30.26,NE,34,2.0,4.0,37,0.00,,,0.00,Wunderground v.1.15,2013-04-03 14:10:00,
2013-04-03 10:15:00,44.7,20.0,30.26,NW,323,2.0,4.0,37,0.00,,,0.00,Wunderground v.1.15,2013-04-03 14:15:00,
2013-04-03 10:20:00,45.0,19.6,30.27,ENE,67,2.0,2.0,36,0.00,,,0.00,Wunderground v.1.15,2013-04-03 14:20:00,
2013-04-03 10:25:00,45.4,20.6,30.26,NNE,17,1.0,3.0,37,0.00,,,0.00,Wunderground v.1.15,2013-04-03 14:25:00,
2013-04-03 10:30:00,45.7,20.9,30.27,NE,53,1.0,1.0,37,0.00,,,0.00,Wunderground v.1.15,2013-04-03 14:30:00,
2013-04-03 10:34:00,45.9,20.4,30.27,NE,49,1.0,2.0,36,0.00,,,0.00,Wunderground v.1.15,2013-04-03 14:34:00,
2013-04-03 10:40:00,46.0,19.2,30.27,NE,55,1.0,1.0,34,0.00,,,0.00,Wunderground v.1.15,2013-04-03 14:40:00,
2013-04-03 10:45:00,46.0,19.2,30.27,NNE,28,1.0,1.0,34,0.00,,,0.00,Wunderground v.1.15,2013-04-03 14:45:00,
2013-04-03 10:54:00,46.5,20.3,30.26,NNW,348,1.0,4.0,35,0.00,,,0.00,Wunderground v.1.15,2013-04-03 14:54:00,
2013-04-03 10:59:00,46.6,19.7,30.26,NNW,334,2.0,2.0,34,0.00,,,0.00,Wunderground v.1.15,2013-04-03 14:59:00,
2013-04-03 11:05:00,46.7,19.8,30.27,SE,124,2.0,2.0,34,0.00,,,0.00,Wunderground v.1.15,2013-04-03 15:05:00,
2013-04-03 11:10:00,46.8,19.9,30.27,NW,308,3.0,3.0,34,0.00,,,0.00,Wunderground v.1.15,2013-04-03 15:10:00,
2013-04-03 11:15:00,47.1,20.8,30.26,East,98,2.0,3.0,35,0.00,,,0.00,Wunderground v.1.15,2013-04-03 15:15:00,
2013-04-03 11:20:00,47.4,19.7,30.27,East,90,2.0,2.0,33,0.00,,,0.00,Wunderground v.1.15,2013-04-03 15:20:00,
2013-04-03 11:25:00,47.9,19.4,30.27,East,92,2.0,5.0,32,0.00,,,0.00,Wunderground v.1.15,2013-04-03 15:25:00,
2013-04-03 11:30:00,47.9,20.1,30.27,East,90,2.0,2.0,33,0.00,,,0.00,Wunderground v.1.15,2013-04-03 15:30:00,
2013-04-03 11:40:00,48.2,19.7,30.27,NE,50,1.0,1.0,32,0.00,,,0.00,Wunderground v.1.15,2013-04-03 15:40:00,
2013-04-03 11:45:00,48.2,18.9,30.27,NNW,331,1.0,1.0,31,0.00,,,0.00,Wunderground v.1.15,2013-04-03 15:45:00,
2013-04-03 11:50:00,48.3,19.8,30.27,East,101,1.0,2.0,32,0.00,,,0.00,Wunderground v.1.15,2013-04-03 15:50:00,
2013-04-03 11:55:00,48.5,19.9,30.27,SE,140,1.0,4.0,32,0.00,,,0.00,Wunderground v.1.15,2013-04-03 15:55:00,
2013-04-03 12:00:00,48.7,19.4,30.27,SSW,198,2.0,2.0,31,0.00,,,0.00,Wunderground v.1.15,2013-04-03 16:00:00,
2013-04-03 12:05:00,48.8,19.5,30.27,ENE,70,2.0,2.0,31,0.00,,,0.00,Wunderground v.1.15,2013-04-03 16:05:00,
2013-04-03 12:10:00,48.7,19.4,30.27,ESE,117,2.0,4.0,31,0.00,,,0.00,Wunderground v.1.15,2013-04-03 16:10:00,
2013-04-03 12:15:00,48.8,20.2,30.27,SSE,162,2.0,4.0,32,0.00,,,0.00,Wunderground v.1.15,2013-04-03 16:15:00,
2013-04-03 12:20:00,49.4,20.0,30.27,East,82,1.0,1.0,31,0.00,,,0.00,Wunderground v.1.15,2013-04-03 16:20:00,
2013-04-03 12:25:00,49.7,19.5,30.26,SSW,201,2.0,2.0,30,0.00,,,0.00,Wunderground v.1.15,2013-04-03 16:25:00,
2013-04-03 12:30:00,49.9,19.7,30.26,ENE,77,3.0,3.0,30,0.00,,,0.00,Wunderground v.1.15,2013-04-03 16:30:00,
2013-04-03 12:35:00,50.1,20.6,30.26,East,84,2.0,3.0,31,0.00,,,0.00,Wunderground v.1.15,2013-04-03 16:35:00,
2013-04-03 12:40:00,50.5,20.2,30.25,ENE,74,1.0,1.0,30,0.00,,,0.00,Wunderground v.1.15,2013-04-03 16:40:00,
2013-04-03 12:45:00,50.6,19.5,30.25,WSW,242,1.0,1.0,29,0.00,,,0.00,Wunderground v.1.15,2013-04-03 16:45:00,
2013-04-03 12:55:00,51.4,21.0,30.26,ESE,107,2.0,5.0,30,0.00,,,0.00,Wunderground v.1.15,2013-04-03 16:55:00,
2013-04-03 13:00:00,51.6,20.3,30.25,ENE,61,2.0,2.0,29,0.00,,,0.00,Wunderground v.1.15,2013-04-03 17:00:00,
2013-04-03 13:05:00,52.0,21.5,30.25,East,85,2.0,2.0,30,0.00,,,0.00,Wunderground v.1.15,2013-04-03 17:05:00,
2013-04-03 13:10:00,52.3,21.7,30.25,NNW,330,2.0,2.0,30,0.00,,,0.00,Wunderground v.1.15,2013-04-03 17:10:00,
2013-04-03 13:15:00,52.7,20.5,30.24,ESE,122,2.0,2.0,28,0.00,,,0.00,Wunderground v.1.15,2013-04-03 17:15:00,
2013-04-03 13:25:00,53.0,21.6,30.24,East,88,2.0,5.0,29,0.00,,,0.00,Wunderground v.1.15,2013-04-03 17:25:00,
2013-04-03 13:30:00,53.1,20.8,30.24,NW,313,3.0,3.0,28,0.00,,,0.00,Wunderground v.1.15,2013-04-03 17:30:00,
2013-04-03 13:40:00,53.2,20.9,30.24,NE,37,2.0,4.0,28,0.00,,,0.00,Wunderground v.1.15,2013-04-03 17:40:00,
2013-04-03 13:45:00,53.5,21.2,30.23,North,351,2.0,4.0,28,0.00,,,0.00,Wunderground v.1.15,2013-04-03 17:45:00,
2013-04-03 13:50:00,53.7,20.5,30.23,West,279,2.0,2.0,27,0.00,,,0.00,Wunderground v.1.15,2013-04-03 17:50:00,
2013-04-03 14:00:00,54.6,21.2,30.23,South,169,2.0,2.0,27,0.00,,,0.00,Wunderground v.1.15,2013-04-03 18:00:00,
2013-04-03 14:05:00,54.5,22.0,30.22,NNW,343,2.0,2.0,28,0.00,,,0.00,Wunderground v.1.15,2013-04-03 18:05:00,
2013-04-03 14:10:00,54.7,23.0,30.22,ENE,74,1.0,1.0,29,0.00,,,0.00,Wunderground v.1.15,2013-04-03 18:10:00,
2013-04-03 14:15:00,55.3,21.8,30.22,ESE,122,1.0,1.0,27,0.00,,,0.00,Wunderground v.1.15,2013-04-03 18:15:00,
2013-04-03 14:25:00,55.5,22.0,30.22,South,182,2.0,2.0,27,0.00,,,0.00,Wunderground v.1.15,2013-04-03 18:25:00,
2013-04-03 14:30:00,55.5,22.9,30.22,SW,218,2.0,2.0,28,0.00,,,0.00,Wunderground v.1.15,2013-04-03 18:30:00,
2013-04-03 14:35:00,55.4,21.0,30.22,East,101,2.0,2.0,26,0.00,,,0.00,Wunderground v.1.15,2013-04-03 18:35:00,
2013-04-03 14:40:00,55.6,23.0,30.22,NE,38,1.0,1.0,28,0.00,,,0.00,Wunderground v.1.15,2013-04-03 18:40:00,
2013-04-03 14:45:00,56.1,22.5,30.22,NNE,19,1.0,3.0,27,0.00,,,0.00,Wunderground v.1.15,2013-04-03 18:45:00,
2013-04-03 14:50:00,55.9,22.4,30.22,NNE,26,1.0,1.0,27,0.00,,,0.00,Wunderground v.1.15,2013-04-03 18:50:00,
2013-04-03 14:55:00,55.9,22.4,30.22,South,191,2.0,6.0,27,0.00,,,0.00,Wunderground v.1.15,2013-04-03 18:55:00,
2013-04-03 15:00:00,55.9,22.4,30.22,SSW,212,2.0,2.0,27,0.00,,,0.00,Wunderground v.1.15,2013-04-03 19:00:00,
2013-04-03 15:05:00,55.9,22.4,30.22,North,5,2.0,3.0,27,0.00,,,0.00,Wunderground v.1.15,2013-04-03 19:05:00,
2013-04-03 15:10:00,55.9,22.4,30.22,SE,132,2.0,2.0,27,0.00,,,0.00,Wunderground v.1.15,2013-04-03 19:10:00,
2013-04-03 15:15:00,56.0,23.3,30.22,SE,146,1.0,2.0,28,0.00,,,0.00,Wunderground v.1.15,2013-04-03 19:15:00,
2013-04-03 15:20:00,56.2,23.5,30.22,North,355,1.0,1.0,28,0.00,,,0.00,Wunderground v.1.15,2013-04-03 19:20:00,
2013-04-03 15:25:00,56.4,22.8,30.22,South,188,1.0,1.0,27,0.00,,,0.00,Wunderground v.1.15,2013-04-03 19:25:00,
2013-04-03 15:30:00,56.6,23.8,30.22,SSE,147,1.0,1.0,28,0.00,,,0.00,Wunderground v.1.15,2013-04-03 19:30:00,
2013-04-03 15:35:00,56.7,23.9,30.22,WSW,254,1.0,1.0,28,0.00,,,0.00,Wunderground v.1.15,2013-04-03 19:35:00,
2013-04-03 15:40:00,56.7,23.9,30.22,ESE,102,1.0,1.0,28,0.00,,,0.00,Wunderground v.1.15,2013-04-03 19:40:00,
2013-04-03 15:45:00,56.7,23.0,30.22,East,84,1.0,1.0,27,0.00,,,0.00,Wunderground v.1.15,2013-04-03 19:45:00,
2013-04-03 15:50:00,56.7,23.0,30.22,SSE,159,1.0,1.0,27,0.00,,,0.00,Wunderground v.1.15,2013-04-03 19:50:00,
2013-04-03 15:55:00,56.4,23.7,30.22,ESE,103,1.0,4.0,28,0.00,,,0.00,Wunderground v.1.15,2013-04-03 19:55:00,
2013-04-03 16:00:00,56.3,23.6,30.22,East,96,1.0,1.0,28,0.00,,,0.00,Wunderground v.1.15,2013-04-03 20:00:00,
2013-04-03 16:05:00,56.4,23.7,30.22,South,188,1.0,1.0,28,0.00,,,0.00,Wunderground v.1.15,2013-04-03 20:05:00,
2013-04-03 16:10:00,56.4,23.7,30.22,South,188,1.0,1.0,28,0.00,,,0.00,Wunderground v.1.15,2013-04-03 20:10:00,
2013-04-03 16:15:00,56.4,24.5,30.22,South,188,0.0,1.0,29,0.00,,,0.00,Wunderground v.1.15,2013-04-03 20:15:00,
2013-04-03 16:20:00,56.4,23.7,30.22,SSE,164,0.0,0.0,28,0.00,,,0.00,Wunderground v.1.15,2013-04-03 20:20:00,
2013-04-03 16:25:00,56.4,23.7,30.22,SSE,148,1.0,1.0,28,0.00,,,0.00,Wunderground v.1.15,2013-04-03 20:25:00,
2013-04-03 16:30:00,56.2,25.1,30.22,SSW,202,1.0,1.0,30,0.00,,,0.00,Wunderground v.1.15,2013-04-03 20:30:00,
2013-04-03 16:40:00,56.3,23.6,30.22,SE,124,0.0,0.0,28,0.00,,,0.00,Wunderground v.1.15,2013-04-03 20:40:00,
2013-04-03 16:45:00,56.1,23.4,30.22,East,100,1.0,1.0,28,0.00,,,0.00,Wunderground v.1.15,2013-04-03 20:45:00,
2013-04-03 16:50:00,56.0,25.0,30.22,SE,127,1.0,1.0,30,0.00,,,0.00,Wunderground v.1.15,2013-04-03 20:50:00,
2013-04-03 16:55:00,56.0,25.0,30.22,South,180,0.0,1.0,30,0.00,,,0.00,Wunderground v.1.15,2013-04-03 20:55:00,
2013-04-03 17:00:00,56.0,25.0,30.22,South,180,0.0,0.0,30,0.00,,,0.00,Wunderground v.1.15,2013-04-03 21:00:00,
2013-04-03 17:05:00,56.1,25.8,30.22,South,180,0.0,0.0,31,0.00,,,0.00,Wunderground v.1.15,2013-04-03 21:05:00,
2013-04-03 17:10:00,56.2,26.7,30.22,South,180,0.0,0.0,32,0.00,,,0.00,Wunderground v.1.15,2013-04-03 21:10:00,
2013-04-03 17:15:00,56.2,25.1,30.22,South,180,0.0,0.0,30,0.00,,,0.00,Wunderground v.1.15,2013-04-03 21:15:00,
2013-04-03 17:20:00,56.0,25.0,30.22,South,180,0.0,0.0,30,0.00,,,0.00,Wunderground v.1.15,2013-04-03 21:20:00,
2013-04-03 17:25:00,56.0,25.0,30.21,South,180,0.0,0.0,30,0.00,,,0.00,Wunderground v.1.15,2013-04-03 21:25:00,
2013-04-03 17:30:00,55.7,24.7,30.22,South,178,0.0,0.0,30,0.00,,,0.00,Wunderground v.1.15,2013-04-03 21:30:00,
2013-04-03 17:35:00,55.6,25.4,30.22,South,178,0.0,1.0,31,0.00,,,0.00,Wunderground v.1.15,2013-04-03 21:35:00,
2013-04-03 17:40:00,55.5,24.5,30.21,South,178,0.0,0.0,30,0.00,,,0.00,Wunderground v.1.15,2013-04-03 21:40:00,
2013-04-03 17:45:00,55.5,26.1,30.21,South,178,0.0,0.0,32,0.00,,,0.00,Wunderground v.1.15,2013-04-03 21:45:00,
2013-04-03 17:49:00,55.5,26.1,30.21,South,178,0.0,0.0,32,0.00,,,0.00,Wunderground v.1.15,2013-04-03 21:49:00,
2013-04-03 17:55:00,55.5,26.1,30.21,South,178,0.0,0.0,32,0.00,,,0.00,Wunderground v.1.15,2013-04-03 21:55:00,
2013-04-03 18:00:00,55.5,25.3,30.21,South,178,0.0,0.0,31,0.00,,,0.00,Wunderground v.1.15,2013-04-03 22:00:00,
2013-04-03 18:05:00,55.5,25.3,30.21,South,178,0.0,0.0,31,0.00,,,0.00,Wunderground v.1.15,2013-04-03 22:05:00,
2013-04-03 18:10:00,55.5,25.3,30.21,South,178,0.0,0.0,31,0.00,,,0.00,Wunderground v.1.15,2013-04-03 22:10:00,
2013-04-03 18:15:00,55.4,25.2,30.21,South,178,0.0,0.0,31,0.00,,,0.00,Wunderground v.1.15,2013-04-03 22:15:00,
2013-04-03 18:25:00,55.0,24.9,30.21,South,184,0.0,0.0,31,0.00,,,0.00,Wunderground v.1.15,2013-04-03 22:25:00,
2013-04-03 18:30:00,54.9,25.6,30.21,South,184,0.0,0.0,32,0.00,,,0.00,Wunderground v.1.15,2013-04-03 22:30:00,
2013-04-03 18:35:00,54.7,25.4,30.21,South,185,0.0,0.0,32,0.00,,,0.00,Wunderground v.1.15,2013-04-03 22:35:00,
2013-04-03 18:40:00,54.5,26.0,30.21,SSW,198,0.0,0.0,33,0.00,,,0.00,Wunderground v.1.15,2013-04-03 22:40:00,
2013-04-03 18:45:00,54.3,25.8,30.21,SSW,198,0.0,0.0,33,0.00,,,0.00,Wunderground v.1.15,2013-04-03 22:45:00,
2013-04-03 18:50:00,54.1,25.6,30.21,ESE,116,0.0,5.0,33,0.00,,,0.00,Wunderground v.1.15,2013-04-03 22:50:00,
2013-04-03 18:55:00,53.9,25.4,30.22,ESE,117,0.0,5.0,33,0.00,,,0.00,Wunderground v.1.15,2013-04-03 22:55:00,
2013-04-03 19:00:00,53.6,25.2,30.22,ESE,117,0.0,0.0,33,0.00,,,0.00,Wunderground v.1.15,2013-04-03 23:00:00,
2013-04-03 19:05:00,53.4,25.0,30.21,SSE,161,0.0,0.0,33,0.00,,,0.00,Wunderground v.1.15,2013-04-03 23:05:00,
2013-04-03 19:10:00,53.2,24.8,30.22,ESE,111,0.0,0.0,33,0.00,,,0.00,Wunderground v.1.15,2013-04-03 23:10:00,
2013-04-03 19:15:00,53.0,25.3,30.22,SSE,164,0.0,0.0,34,0.00,,,0.00,Wunderground v.1.15,2013-04-03 23:15:00,
2013-04-03 19:20:00,52.9,26.0,30.22,SSE,164,0.0,0.0,35,0.00,,,0.00,Wunderground v.1.15,2013-04-03 23:20:00,
2013-04-03 19:25:00,52.8,25.9,30.22,SSE,164,0.0,0.0,35,0.00,,,0.00,Wunderground v.1.15,2013-04-03 23:25:00,
2013-04-03 19:30:00,52.6,25.7,30.22,SSE,164,0.0,0.0,35,0.00,,,0.00,Wunderground v.1.15,2013-04-03 23:30:00,
2013-04-03 19:35:00,52.4,25.5,30.23,SSE,164,0.0,0.0,35,0.00,,,0.00,Wunderground v.1.15,2013-04-03 23:35:00,
2013-04-03 19:40:00,52.2,26.0,30.23,SSE,164,0.0,0.0,36,0.00,,,0.00,Wunderground v.1.15,2013-04-03 23:40:00,
2013-04-03 19:50:00,51.7,26.2,30.23,SSE,164,0.0,0.0,37,0.00,,,0.00,Wunderground v.1.15,2013-04-03 23:50:00,
2013-04-03 19:55:00,51.5,26.7,30.23,SSE,164,0.0,0.0,38,0.00,,,0.00,Wunderground v.1.15,2013-04-03 23:55:00,
2013-04-03 20:00:00,51.3,25.9,30.23,SSE,164,0.0,0.0,37,0.00,,,0.00,Wunderground v.1.15,2013-04-04 00:00:00,
2013-04-03 20:05:00,51.1,25.7,30.23,SSE,164,0.0,0.0,37,0.00,,,0.00,Wunderground v.1.15,2013-04-04 00:05:00,
2013-04-03 20:15:00,50.8,26.1,30.23,SSE,164,0.0,0.0,38,0.00,,,0.00,Wunderground v.1.15,2013-04-04 00:15:00,
2013-04-03 20:25:00,50.5,27.7,30.23,SSE,164,0.0,0.0,41,0.00,,,0.00,Wunderground v.1.15,2013-04-04 00:25:00,
2013-04-03 20:30:00,50.3,26.9,30.24,SSE,164,0.0,0.0,40,0.00,,,0.00,Wunderground v.1.15,2013-04-04 00:30:00,
2013-04-03 20:40:00,49.9,28.8,30.24,SSE,164,0.0,0.0,44,0.00,,,0.00,Wunderground v.1.15,2013-04-04 00:40:00,
2013-04-03 20:44:00,49.7,28.1,30.25,SSE,164,0.0,0.0,43,0.00,,,0.00,Wunderground v.1.15,2013-04-04 00:44:00,
2013-04-03 20:50:00,49.5,28.5,30.25,SSE,164,0.0,0.0,44,0.00,,,0.00,Wunderground v.1.15,2013-04-04 00:50:00,
2013-04-03 20:55:00,49.3,30.4,30.25,SSE,164,0.0,0.0,48,0.00,,,0.00,Wunderground v.1.15,2013-04-04 00:55:00,
2013-04-03 21:00:00,49.1,31.2,30.26,SSE,164,0.0,0.0,50,0.00,,,0.00,Wunderground v.1.15,2013-04-04 01:00:00,
2013-04-03 21:05:00,48.8,29.4,30.26,SSE,164,0.0,0.0,47,0.00,,,0.00,Wunderground v.1.15,2013-04-04 01:05:00,
2013-04-03 21:15:00,48.4,29.6,30.26,SSE,164,0.0,0.0,48,0.00,,,0.00,Wunderground v.1.15,2013-04-04 01:15:00,
2013-04-03 21:20:00,48.2,30.9,30.27,SSE,164,0.0,0.0,51,0.00,,,0.00,Wunderground v.1.15,2013-04-04 01:20:00,
2013-04-03 21:25:00,48.0,29.2,30.26,SSE,164,0.0,0.0,48,0.00,,,0.00,Wunderground v.1.15,2013-04-04 01:25:00,
2013-04-03 21:35:00,47.8,27.5,30.27,SSE,164,0.0,0.0,45,0.00,,,0.00,Wunderground v.1.15,2013-04-04 01:35:00,
2013-04-03 21:40:00,47.7,26.8,30.27,SSE,164,0.0,0.0,44,0.00,,,0.00,Wunderground v.1.15,2013-04-04 01:40:00,
2013-04-03 21:50:00,47.7,30.4,30.27,SSE,164,0.0,0.0,51,0.00,,,0.00,Wunderground v.1.15,2013-04-04 01:50:00,
2013-04-03 21:54:00,47.6,30.3,30.27,SSE,164,0.0,0.0,51,0.00,,,0.00,Wunderground v.1.15,2013-04-04 01:54:00,
2013-04-03 22:00:00,47.6,28.3,30.27,SSE,164,0.0,0.0,47,0.00,,,0.00,Wunderground v.1.15,2013-04-04 02:00:00,
2013-04-03 22:05:00,47.5,30.7,30.27,SSE,164,0.0,0.0,52,0.00,,,0.00,Wunderground v.1.15,2013-04-04 02:05:00,
2013-04-03 22:10:00,47.6,27.8,30.27,SSE,164,0.0,0.0,46,0.00,,,0.00,Wunderground v.1.15,2013-04-04 02:10:00,
2013-04-03 22:15:00,47.6,29.9,30.27,SSE,164,0.0,0.0,50,0.00,,,0.00,Wunderground v.1.15,2013-04-04 02:15:00,
2013-04-03 22:20:00,47.6,28.3,30.28,SSE,164,0.0,0.0,47,0.00,,,0.00,Wunderground v.1.15,2013-04-04 02:20:00,
2013-04-03 22:25:00,47.6,30.8,30.28,SSE,164,0.0,0.0,52,0.00,,,0.00,Wunderground v.1.15,2013-04-04 02:25:00,
2013-04-03 22:30:00,47.5,30.7,30.28,SSE,164,0.0,0.0,52,0.00,,,0.00,Wunderground v.1.15,2013-04-04 02:30:00,
2013-04-03 22:40:00,47.2,30.0,30.29,SSE,164,0.0,0.0,51,0.00,,,0.00,Wunderground v.1.15,2013-04-04 02:40:00,
2013-04-03 22:45:00,47.1,31.3,30.29,SSE,164,0.0,0.0,54,0.00,,,0.00,Wunderground v.1.15,2013-04-04 02:45:00,
2013-04-03 22:55:00,47.0,29.3,30.29,SSE,164,0.0,0.0,50,0.00,,,0.00,Wunderground v.1.15,2013-04-04 02:55:00,
2013-04-03 23:05:00,47.1,26.3,30.30,SW,215,0.0,0.0,44,0.00,,,0.00,Wunderground v.1.15,2013-04-04 03:05:00,
2013-04-03 23:10:00,47.2,28.0,30.30,SW,215,0.0,0.0,47,0.00,,,0.00,Wunderground v.1.15,2013-04-04 03:10:00,
2013-04-03 23:15:00,47.3,31.0,30.30,SW,215,0.0,0.0,53,0.00,,,0.00,Wunderground v.1.15,2013-04-04 03:15:00,
2013-04-03 23:20:00,47.3,28.1,30.29,SW,215,0.0,0.0,47,0.00,,,0.00,Wunderground v.1.15,2013-04-04 03:20:00,
2013-04-03 23:25:00,47.2,26.4,30.29,SW,215,0.0,0.0,44,0.00,,,0.00,Wunderground v.1.15,2013-04-04 03:25:00,
2013-04-03 23:30:00,47.2,26.4,30.29,SW,215,0.0,0.0,44,0.00,,,0.00,Wunderground v.1.15,2013-04-04 03:30:00,
2013-04-03 23:34:00,47.2,25.8,30.29,SW,215,0.0,0.0,43,0.00,,,0.00,Wunderground v.1.15,2013-04-04 03:34:00,
2013-04-03 23:40:00,47.4,26.0,30.29,SW,215,0.0,0.0,43,0.00,,,0.00,Wunderground v.1.15,2013-04-04 03:40:00,
2013-04-03 23:45:00,47.4,25.4,30.29,SW,215,0.0,0.0,42,0.00,,,0.00,Wunderground v.1.15,2013-04-04 03:45:00,
2013-04-03 23:55:00,47.5,26.1,30.28,SW,215,0.0,0.0,43,0.00,,,0.00,Wunderground v.1.15,2013-04-04 03:55:00,